Regional Weather Roundup
Issued by NWS Kansas City/Pleasant Hill, MO

Home | Current Version | Previous Version | Graphics & Text | Print | Product List | Glossary Off
Versions: 1 2 3 4 5 6 7 8 9 10 11 12 13 14 15 16 17 18 19 20 21 22 23 24 25 26 27 28 29 30 31 32 33 34 35 36 37 38 39 40 41 42 43 44 45 46 47 48 49 50

000
ASUS43 KEAX 200604
RWREAX

WEATHER ROUNDUP FOR EASTERN KANSAS AND NORTHWEST MISSOURI
NATIONAL WEATHER SERVICE KANSAS CITY/PLEASANT HILL MO
1200 AM CST SAT DEC 20 2014

KSZ040-057-103>105-MOZ028-029-037-043-200700-
...KANSAS CITY METROPOLITAN AREA...

CITY           SKY/WX    TMP DP  RH WIND       PRES   REMARKS
K.C. INTL      CLOUDY    32  31  96 SW5       30.21R FOG     WCI  27
6HR MIN TEMP:  32; 6HR MAX TEMP:  32; 6HR PCP: TRACE;

K.C. DOWNTOWN  CLOUDY    34  32  92 W3        30.22S
6HR MIN TEMP:  34; 6HR MAX TEMP:  36;

LEES SUMMIT    CLOUDY    35  33  92 W5        30.21S FOG     WCI  31
6HR MIN TEMP:  34; 6HR MAX TEMP:  35;

OLATHE - IXD   LGT SNOW  32  32 100 W3        30.21S VSB 3/4
6HR MIN TEMP:  32; 6HR MAX TEMP:  32; 6HR PCP: TRACE;

OLATHE - OJC   CLOUDY    33  32  96 W3        30.20S FOG
6HR MIN TEMP:  33; 6HR MAX TEMP:  33;

LAWRENCE       CLOUDY    33  28  81 SW5       30.22S WCI  29

$$

MOZ001>008-011>017-020>025-030>033-038>040-044>046-053-054-200700-
...NORTHERN AND CENTRAL MISSOURI...

CITY           SKY/WX    TMP DP  RH WIND       PRES   REMARKS
ST. JOSEPH     CLOUDY    31  28  89 SW5       30.22S WCI  26
6HR MIN TEMP:  31; 6HR MAX TEMP:  32;

MOSBY          CLOUDY    32  32 100 CALM      30.22S FOG
WARRENSBURG    CLOUDY    36  34  93 SE3       30.21F FOG
WHITEMAN AFB   CLOUDY    36  35  96 SE3       30.21S FOG
6HR MIN TEMP:  36; 6HR MAX TEMP:  36;

CLINTON        FOG       37  37 100 CALM      30.22S VSB 3/4
SEDALIA        FOG       37  35  92 SE5       30.22S VSB 1/2 WCI  33
6HR MIN TEMP:  36; 6HR MAX TEMP:  37;

WARSAW         NOT AVBL
MARSHALL       CLOUDY    37  37 100 CALM      30.24  FOG
CHILLICOTHE      N/A     33  32  96 CALM      30.23S
6HR MIN TEMP:  33; 6HR MAX TEMP:  34; 6HR PCP:  0.01;

MOBERLY        CLOUDY    34  30  86 SE3       30.23F FOG
KIRKSVILLE     CLOUDY    32  30  92 SE7       30.23R FOG     WCI  26
6HR MIN TEMP:  32; 6HR MAX TEMP:  32;


$$

MOZ041-047>049-056>058-063>065-088>090-097-200700-
...EASTERN AND SOUTHERN MISSOURI...

CITY           SKY/WX    TMP DP  RH WIND       PRES   REMARKS
ST. LOUIS INTL CLOUDY    36  27  69 SE5       30.28R WCI  32
6HR MIN TEMP:  36; 6HR MAX TEMP:  37;

SPIRIT OF STL  CLOUDY    35  28  75 CALM      30.27S
COLUMBIA       CLOUDY    35  32  88 SE7       30.22F FOG     WCI  29
JEFFERSON CITY CLOUDY    36  32  85 E6        30.25S WCI  31
MEXICO         CLOUDY   N/A N/A N/A SE3       30.24F HAZE
ROLLA          CLOUDY    34  31  88 SE6       30.21S WCI  29
LEBANON        CLOUDY    36  36 100 SE6       30.20F WCI  31
OSAGE BEACH    CLOUDY    37  34  87 SE5       30.22S WCI  34
SPRINGFIELD    CLOUDY    37  36  96 S7        30.19S WCI  32
NEVADA         FOG       36  36 100 CALM      30.22F VSB 1/2
JOPLIN         CLOUDY    38  38 100 W5        30.22R FOG     WCI  34
WEST PLAINS    CLOUDY    34  31  88 SE5       30.23S WCI  30

$$

IAZ060-094-KSZ022-034>040-054-083-096-NEZ052-066-093-200700-
...KANSAS...SOUTHEAST NEBRASKA AND IOWA...

CITY           SKY/WX    TMP DP  RH WIND       PRES   REMARKS
TOPEKA         CLOUDY    34  29  82 CALM      30.22S
6HR MIN TEMP:  33; 6HR MAX TEMP:  34;

MANHATTAN      CLOUDY    34  32  92 S6        30.16S WCI  29
EMPORIA        CLOUDY    33  30  88 S7        30.18S WCI  27
CHANUTE        CLOUDY    34  33  96 CALM      30.20F FOG
WICHITA        CLOUDY    38  34  85 S7        30.18R WCI  33
OMAHA          DRIZZLE   31  29  92 SE14      30.14F FOG     WCI  21
LINCOLN        CLOUDY    33  30  88 S10       30.12F WCI  25
FALLS CITY     CLOUDY    31  27  85 S9        30.17S WCI  23
LAMONI         CLOUDY    31  29  92 S10       30.18F FOG     WCI  22
DES MOINES     FLURRIES  32  30  92 S5        30.20S WCI  27

$$




USA.gov is the U.S. government's official web portal to all federal, state and local government web resources and services.